Cloud_Cover
59 74 39 90 66 78 84 85 28 28 99 27 93 50 100 67 8 5 4 5 5 2 0 1 3 3 0 4 14 5 5 7 89 22 79 86 96 93 100 100 100 100 100 100 100 100 100
73 95 84 85 100 100 98 100 100 82 66 17 95 62 64 41 31 5 5 5 5 0 0 0 3 0 0 0 3 5 5 5 52 100 100 98 84 45 74 95 100 100 76 79 100 100 100
100 100 100 100 100 100 100 100 100 100 100 86 82 67 100 78 47 5 19 5 3 0 0 0 0 0 0 0 6 39 97 66 5 98 100 100 95 88 54 100 100 100 100 100 100 66 70
100 100 100 100 100 100 100 100 100 100 100 100 100 100 97 97 30 16 5 4 0 0 0 0 0 0 0 0 0 70 100 100 100 100 100 100 100 100 100 100 100 100 100 100 100 100 100
100 100 100 100 100 100 100 100 100 100 100 100 100 42 36 31 8 5 5 3 0 0 0 0 0 2 1 0 1 100 100 100 80 100 99 100 100 100 100 100 87 100 100 100 100 100 100
100 100 100 100 100 100 100 100 100 100 100 100 100 90 5 5 5 5 4 5 0 0 0 0 0 0 58 86 41 27 100 100 100 100 100 100 100 100 100 100 84 100 100 100 100 100 100
100 100 100 100 100 100 100 100 100 100 100 100 100 67 5 5 5 5 5 0 1 2 0 0 0 0 4 72 100 86 62 100 100 100 100 100 100 12 100 100 100 100 100 100 100 100 100
100 100 100 100 100 100 100 100 100 100 100 100 100 21 5 5 6 75 5 4 3 0 0 0 0 5 8 5 36 79 100 32 100 100 100 100 98 100 100 100 100 100 100 100 100 100 65
100 100 100 100 100 100 100 100 100 100 100 75 6 5 47 83 71 5 5 6 5 5 2 0 0 0 15 56 41 85 35 16 6 98 100 100 100 100 75 64 96 100 100 96 100 100 32
100 100 100 100 100 100 100 100 100 100 32 22 96 100 84 6 19 29 5 5 0 5 0 0 0 0 0 0 0 0 20 23 4 3 69 64 99 100 100 100 90 60 100 100 100 100 6
100 100 100 100 100 100 100 100 100 99 100 100 100 100 100 11 5 5 4 0 1 6 0 0 0 0 0 0 0 0 0 0 0 0 2 0 5 40 100 100 100 100 100 100 100 100 100
100 100 100 100 100 100 100 100 100 100 100 100 100 100 5 5 5 5 4 5 4 0 4 4 2 0 0 0 0 0 0 4 14 17 0 1 1 0 2 100 100 100 100 100 86 18 5
100 100 100 100 100 100 100 100 100 100 100 100 100 97 5 5 5 4 5 5 0 2 1 0 1 0 0 0 0 0 3 26 92 93 90 66 3 0 0 0 48 94 100 100 100 79 28
100 100 100 100 100 100 100 100 100 100 100 100 42 5 5 12 5 5 5 5 0 0 0 0 0 0 0 0 0 0 5 53 100 100 98 100 30 98 0 0 0 5 24 100 100 61 90
100 100 100 100 100 100 100 100 100 100 94 84 68 24 46 5 5 5 5 5 0 0 0 5 0 0 0 5 5 54 5 76 100 100 100 100 86 30 90 0 0 0 5 7 98 98 83
100 100 100 100 100 100 100 100 100 100 100 78 65 18 23 29 5 5 5 5 1 1 5 5 5 5 5 5 8 80 28 86 100 100 100 100 76 47 96 45 3 0 4 36 53 61 5
100 100 100 100 100 100 100 100 100 100 100 100 87 14 42 8 5 5 10 14 1 5 5 24 54 83 89 93 98 100 82 96 100 100 100 100 100 100 84 100 61 0 12 34 5 10 69
100 100 100 100 100 100 100 100 100 100 100 100 80 92 48 76 11 31 66 6 2 24 5 86 86 99 100 100 75 100 100 82 100 100 100 100 100 100 100 98 7 13 21 36 8 5 5
100 100 100 100 100 100 100 100 100 100 100 100 96 58 99 62 69 100 11 5 64 100 5 96 94 96 80 99 96 95 100 92 100 100 100 100 100 100 95 96 100 71 84 100 100 100 94
100 100 100 100 100 100 100 100 100 100 100 100 71 75 74 85 100 95 42 39 100 29 2 51 64 68 76 7 81 86 100 98 100 100 100 100 100 100 100 100 100 100 100 33 92 100 13
100 100 100 100 100 99 97 99 100 100 100 98 98 41 87 98 100 80 92 100 56 5 2 1 29 88 77 76 5 18 100 100 89 100 100 100 100 100 100 100 100 100 100 100 88 49 100
100 100 100 100 100 100 100 100 100 100 100 100 86 100 100 100 98 100 100 45 5 22 4 4 28 93 5 33 99 96 100 98 100 100 100 100 100 100 100 99 100 100 100 100 100 100 98
100 100 100 100 100 100 100 100 100 100 100 100 92 84 100 100 100 100 66 4 6 6 3 10 85 5 5 5 5 4 100 96 100 100 100 100 100 100 100 100 100 100 100 100 100 100 100
100 100 100 100 100 100 100 100 98 100 100 100 100 100 100 100 100 82 8 5 27 90 20 5 5 5 5 4 0 3 99 98 84 100 100 100 100 100 100 100 100 100 100 100 100 100 100
100 100 100 100 100 100 100 100 100 100 100 100 100 100 100 100 93 10 43 77 7 5 5 5 1 5 5 4 29 5 100 100 92 100 100 100 100 100 100 100 100 100 100 100 100 81 100
100 100 100 100 100 100 100 100 100 100 100 100 100 100 100 94 14 5 5 5 11 49 52 5 5 1 21 31 88 70 100 99 100 98 100 100 100 100 100 100 100 100 100 100 100 100 100
100 100 100 100 100 100 100 100 100 100 100 100 100 75 90 97 61 7 88 100 98 100 74 17 46 2 20 95 98 100 100 100 99 100 100 100 100 100 100 94 100 100 100 98 100 100 100
100 100 100 100 100 100 100 100 100 100 100 100 69 7 34 70 94 12 4 6 58 18 86 96 27 80 98 97 100 100 100 98 94 53 95 100 100 100 94 99 100 100 100 100 100 100 100
100 100 100 100 100 100 80 89 46 47 100 98 100 10 94 57 95 6 5 5 5 10 96 99 95 60 98 92 98 100 100 99 100 100 54 100 100 100 91 100 100 100 100 100 100 100 100